• In United Kingdom
  • List of Countries
  • For 7 days
  • Water Temperature
  • Satellite Maps
  • Weather Map
  • Weather Widgets
  • user-avatar
    Login

    Hourly Weather Namibe

    Today, 23 October, Monday

    Time Temperature Precipitation Wind Pressure Humidity
    00:00 +25°C° 0 mm 1 mps 759 mmHg 67%
    01:00 +25°C° 0 mm 2 mps 759 mmHg 69%
    02:00 +25°C° 0 mm 2 mps 758 mmHg 68%
    03:00 +25°C° 0 mm 2 mps 758 mmHg 68%
    04:00 +25°C° 0 mm 3 mps 758 mmHg 67%
    05:00 +26°C° 0 mm 3 mps 758 mmHg 63%
    06:00 +27°C° 0 mm 3 mps 758 mmHg 59%
    07:00 +28°C° 0 mm 3 mps 758 mmHg 51%
    08:00 +30°C° 0 mm 3 mps 758 mmHg 44%
    09:00 +34°C° 0 mm 3 mps 758 mmHg 36%
    10:00 +36°C° 0 mm 3 mps 757 mmHg 29%
    11:00 +37°C° 0 mm 4 mps 757 mmHg 28%
    12:00 +39°C° 0 mm 5 mps 756 mmHg 27%
    13:00 +40°C° 0 mm 6 mps 756 mmHg 26%
    14:00 +39°C° 0 mm 6 mps 756 mmHg 30%
    15:00 +36°C° 0 mm 7 mps 755 mmHg 34%
    16:00 +34°C° 0 mm 7 mps 755 mmHg 38%
    17:00 +33°C° 0 mm 6 mps 756 mmHg 41%
    18:00 +30°C° 0 mm 5 mps 756 mmHg 43%
    19:00 +29°C° 0 mm 5 mps 757 mmHg 46%
    20:00 +29°C° 0 mm 4 mps 757 mmHg 46%
    21:00 +29°C° 0 mm 4 mps 758 mmHg 47%
    22:00 +29°C° 0 mm 3 mps 758 mmHg 48%
    23:00 +28°C° 0 mm 3 mps 758 mmHg 49%

    Tomorrow, 24 October, Tuesday

    Time Temperature Precipitation Wind Pressure Humidity
    00:00 +28°C° 0 mm 3 mps 757 mmHg 50%
    01:00 +28°C° 0 mm 2 mps 757 mmHg 51%
    02:00 +28°C° 0 mm 2 mps 756 mmHg 52%
    03:00 +27°C° 0 mm 2 mps 756 mmHg 53%
    04:00 +27°C° 0 mm 2 mps 756 mmHg 54%
    05:00 +27°C° 0 mm 2 mps 756 mmHg 53%
    06:00 +28°C° 0 mm 2 mps 757 mmHg 53%
    07:00 +28°C° 0 mm 2 mps 757 mmHg 52%
    08:00 +30°C° 0 mm 2 mps 757 mmHg 48%
    09:00 +31°C° 0 mm 3 mps 757 mmHg 45%
    10:00 +34°C° 0 mm 3 mps 758 mmHg 41%
    11:00 +34°C° 0 mm 4 mps 757 mmHg 40%
    12:00 +35°C° 0 mm 5 mps 757 mmHg 39%
    13:00 +36°C° 0 mm 6 mps 756 mmHg 38%
    14:00 +35°C° 0 mm 5 mps 756 mmHg 41%
    15:00 +34°C° 0 mm 5 mps 756 mmHg 44%
    16:00 +33°C° 0 mm 5 mps 756 mmHg 46%
    17:00 +30°C° 0 mm 4 mps 757 mmHg 52%
    18:00 +29°C° 0 mm 3 mps 757 mmHg 58%
    19:00 +27°C° 0 mm 3 mps 758 mmHg 64%
    20:00 +27°C° 0 mm 2 mps 758 mmHg 65%
    21:00 +27°C° 0 mm 1 mps 759 mmHg 65%
    22:00 +27°C° 0 mm 1 mps 759 mmHg 66%
    23:00 +27°C° 0 mm 1 mps 759 mmHg 64%

    Day after tomorrow, 25 October, Wednesday

    Time Temperature Precipitation Wind Pressure Humidity
    00:00 +28°C° 0 mm 1 mps 759 mmHg 62%
    01:00 +28°C° 0 mm 1 mps 758 mmHg 60%
    02:00 +28°C° 0.1 mm 2 mps 758 mmHg 61%
    03:00 +28°C° 0.1 mm 2 mps 757 mmHg 61%
    04:00 +28°C° 0.1 mm 2 mps 757 mmHg 61%
    05:00 +28°C° 0 mm 2 mps 757 mmHg 60%
    06:00 +28°C° 0 mm 2 mps 757 mmHg 59%
    07:00 +28°C° 0 mm 2 mps 758 mmHg 57%
    08:00 +30°C° 0 mm 2 mps 758 mmHg 52%
    09:00 +33°C° 0 mm 3 mps 758 mmHg 47%
    10:00 +35°C° 0 mm 3 mps 758 mmHg 41%
    11:00 +36°C° 0 mm 4 mps 758 mmHg 40%
    12:00 +37°C° 0 mm 5 mps 757 mmHg 38%
    13:00 +38°C° 0 mm 6 mps 756 mmHg 36%
    14:00 +36°C° 0 mm 6 mps 756 mmHg 39%
    15:00 +35°C° 0 mm 6 mps 756 mmHg 42%
    16:00 +34°C° 0 mm 7 mps 755 mmHg 45%
    17:00 +32°C° 0 mm 6 mps 756 mmHg 48%
    18:00 +30°C° 0 mm 5 mps 756 mmHg 52%
    19:00 +28°C° 0 mm 4 mps 757 mmHg 55%
    20:00 +28°C° 0 mm 4 mps 758 mmHg 54%
    21:00 +28°C° 0 mm 3 mps 758 mmHg 54%
    22:00 +28°C° 0 mm 3 mps 758 mmHg 53%
    23:00 +28°C° 0 mm 3 mps 758 mmHg 53%

    26 October, Thursday

    Time Temperature Precipitation Wind Pressure Humidity
    00:00 +28°C° 0 mm 3 mps 757 mmHg 54%
    01:00 +28°C° 0 mm 3 mps 757 mmHg 54%
    02:00 +27°C° 0 mm 3 mps 757 mmHg 56%
    03:00 +27°C° 0 mm 3 mps 757 mmHg 58%
    04:00 +26°C° 0 mm 3 mps 756 mmHg 60%
    05:00 +26°C° 0 mm 3 mps 757 mmHg 59%
    06:00 +26°C° 0 mm 3 mps 758 mmHg 59%
    07:00 +27°C° 0 mm 2 mps 758 mmHg 58%
    08:00 +29°C° 0 mm 3 mps 758 mmHg 51%
    09:00 +31°C° 0 mm 3 mps 758 mmHg 45%
    10:00 +34°C° 0 mm 4 mps 759 mmHg 38%
    11:00 +34°C° 0 mm 4 mps 758 mmHg 37%
    12:00 +35°C° 0 mm 5 mps 757 mmHg 36%
    13:00 +35°C° 0 mm 5 mps 757 mmHg 35%
    14:00 +34°C° 0 mm 5 mps 756 mmHg 37%
    15:00 +33°C° 0 mm 5 mps 756 mmHg 39%
    16:00 +32°C° 0 mm 5 mps 756 mmHg 42%
    17:00 +30°C° 0 mm 5 mps 756 mmHg 46%
    18:00 +28°C° 0 mm 4 mps 757 mmHg 51%
    19:00 +26°C° 0 mm 4 mps 757 mmHg 56%
    20:00 +26°C° 0 mm 3 mps 757 mmHg 57%
    21:00 +26°C° 0 mm 3 mps 758 mmHg 58%
    22:00 +25°C° 0 mm 3 mps 758 mmHg 59%
    23:00 +25°C° 0 mm 3 mps 757 mmHg 60%

    27 October, Friday

    Time Temperature Precipitation Wind Pressure Humidity
    00:00 +25°C° 0 mm 3 mps 757 mmHg 61%
    01:00 +24°C° 0 mm 3 mps 757 mmHg 62%
    02:00 +24°C° 0 mm 2 mps 757 mmHg 65%
    03:00 +24°C° 0 mm 2 mps 756 mmHg 68%
    04:00 +23°C° 0 mm 2 mps 756 mmHg 71%
    05:00 +23°C° 0 mm 2 mps 757 mmHg 70%
    06:00 +24°C° 0 mm 2 mps 757 mmHg 69%
    07:00 +24°C° 0 mm 2 mps 758 mmHg 69%
    08:00 +27°C° 0 mm 2 mps 757 mmHg 58%
    09:00 +29°C° 0 mm 3 mps 757 mmHg 48%
    10:00 +33°C° 0 mm 3 mps 757 mmHg 38%
    11:00 +33°C° 0 mm 4 mps 757 mmHg 36%
    12:00 +34°C° 0 mm 5 mps 756 mmHg 35%
    13:00 +35°C° 0 mm 5 mps 756 mmHg 33%
    14:00 +34°C° 0 mm 5 mps 755 mmHg 34%
    15:00 +33°C° 0 mm 5 mps 755 mmHg 35%
    16:00 +32°C° 0 mm 5 mps 755 mmHg 36%
    17:00 +29°C° 0 mm 5 mps 755 mmHg 42%
    18:00 +28°C° 0 mm 4 mps 756 mmHg 48%
    19:00 +26°C° 0 mm 4 mps 757 mmHg 54%
    20:00 +26°C° 0 mm 4 mps 757 mmHg 58%
    21:00 +25°C° 0 mm 4 mps 757 mmHg 61%
    22:00 +24°C° 0 mm 3 mps 757 mmHg 64%
    23:00 +24°C° 0 mm 3 mps 757 mmHg 67%

    28 October, Saturday

    Time Temperature Precipitation Wind Pressure Humidity
    00:00 +22°C° 0 mm 3 mps 757 mmHg 69%
    01:00 +22°C° 0 mm 3 mps 757 mmHg 72%
    02:00 +22°C° 0 mm 3 mps 757 mmHg 75%
    03:00 +21°C° 0 mm 2 mps 757 mmHg 77%
    04:00 +21°C° 0 mm 2 mps 757 mmHg 80%
    05:00 +21°C° 0 mm 2 mps 757 mmHg 78%
    06:00 +21°C° 0 mm 2 mps 757 mmHg 77%
    07:00 +23°C° 0 mm 1 mps 757 mmHg 75%
    08:00 +25°C° 0 mm 2 mps 757 mmHg 63%
    09:00 +28°C° 0 mm 2 mps 757 mmHg 52%
    10:00 +31°C° 0 mm 3 mps 757 mmHg 40%
    11:00 +33°C° 0 mm 4 mps 756 mmHg 38%
    12:00 +34°C° 0 mm 5 mps 756 mmHg 36%
    13:00 +34°C° 0 mm 5 mps 755 mmHg 34%
    14:00 +33°C° 0 mm 5 mps 755 mmHg 36%
    15:00 +32°C° 0 mm 6 mps 755 mmHg 37%
    16:00 +30°C° 0 mm 6 mps 754 mmHg 39%
    17:00 +29°C° 0 mm 5 mps 755 mmHg 45%
    18:00 +27°C° 0 mm 5 mps 756 mmHg 51%
    19:00 +25°C° 0 mm 4 mps 756 mmHg 57%
    20:00 +25°C° 0 mm 4 mps 756 mmHg 59%
    21:00 +25°C° 0 mm 3 mps 757 mmHg 60%
    22:00 +24°C° 0 mm 3 mps 757 mmHg 62%
    23:00 +24°C° 0 mm 3 mps 756 mmHg 63%

    29 October, Sunday

    Time Temperature Precipitation Wind Pressure Humidity
    00:00 +24°C° 0 mm 3 mps 756 mmHg 65%
    01:00 +22°C° 0 mm 3 mps 756 mmHg 66%
    02:00 +23°C° 0 mm 2 mps 756 mmHg 67%
    03:00 +23°C° 0 mm 2 mps 756 mmHg 69%
    04:00 +23°C° 0 mm 2 mps 756 mmHg 70%
    05:00 +23°C° 0 mm 2 mps 756 mmHg 69%
    06:00 +23°C° 0 mm 2 mps 756 mmHg 68%
    07:00 +23°C° 0 mm 1 mps 757 mmHg 66%
    08:00 +26°C° 0 mm 2 mps 757 mmHg 56%
    09:00 +28°C° 0 mm 2 mps 757 mmHg 46%
    10:00 +31°C° 0 mm 2 mps 757 mmHg 36%
    11:00 +33°C° 0 mm 3 mps 756 mmHg 35%
    12:00 +34°C° 0 mm 4 mps 756 mmHg 33%
    13:00 +34°C° 0 mm 5 mps 755 mmHg 32%
    14:00 +34°C° 0 mm 5 mps 755 mmHg 34%
    15:00 +33°C° 0 mm 5 mps 755 mmHg 35%
    16:00 +32°C° 0 mm 5 mps 754 mmHg 37%
    17:00 +29°C° 0 mm 4 mps 755 mmHg 43%
    18:00 +28°C° 0 mm 4 mps 755 mmHg 48%
    19:00 +26°C° 0 mm 3 mps 756 mmHg 54%
    20:00 +26°C° 0 mm 3 mps 756 mmHg 56%
    21:00 +25°C° 0 mm 3 mps 757 mmHg 58%
    22:00 +25°C° 0 mm 2 mps 757 mmHg 60%
    23:00 +25°C° 0 mm 2 mps 757 mmHg 59%
    Show more